| time (UTC) | temp F | wind direction | speed MPH | gust MPH | rain 1hr in | rain 24hr in | rain mn in | humidity % | barometer mb |
| 20260508042933 | 64 | 97 | 1.0 | 5.0 | 0.00 | 0.02 | 0.02 | 88 | 1016.0 |
| 20260508042437 | 64 | 58 | 1.0 | 4.0 | 0.00 | 0.02 | 0.02 | 87 | 1016.4 |
| 20260508042432 | 64 | 82 | 0.0 | 5.0 | 0.00 | 0.02 | 0.02 | 87 | 1016.3 |
| 20260508041434 | 64 | 9 | 1.0 | 4.0 | 0.00 | 0.02 | 0.02 | 87 | 1016.2 |
| 20260508040933 | 64 | 31 | 1.0 | 4.0 | 0.00 | 0.02 | 0.02 | 87 | 1016.2 |
| 20260508040431 | 64 | 39 | 2.0 | 4.0 | 0.00 | 0.02 | 0.02 | 87 | 1016.3 |
| 20260508035929 | 64 | 92 | 2.0 | 4.0 | 0.00 | 0.02 | 0.02 | 87 | 1016.1 |
| 20260508035429 | 64 | 79 | 2.0 | 4.0 | 0.00 | 0.02 | 0.02 | 87 | 1016.1 |
| 20260508034929 | 64 | 42 | 1.0 | 4.0 | 0.00 | 0.02 | 0.02 | 87 | 1016.2 |
| 20260508034427 | 64 | 57 | 2.0 | 4.0 | 0.00 | 0.02 | 0.02 | 87 | 1016.2 |
| 20260508033926 | 64 | 329 | 1.0 | 4.0 | 0.00 | 0.02 | 0.02 | 87 | 1016.2 |
| 20260508033426 | 64 | 34 | 1.0 | 4.0 | 0.00 | 0.02 | 0.02 | 87 | 1016.3 |
| 20260508032922 | 64 | 50 | 2.0 | 5.0 | 0.00 | 0.02 | 0.02 | 87 | 1016.3 |
| 20260508032423 | 64 | 355 | 2.0 | 5.0 | 0.00 | 0.02 | 0.02 | 87 | 1016.2 |
| 20260508031920 | 64 | 79 | 1.0 | 4.0 | 0.00 | 0.02 | 0.02 | 87 | 1016.3 |
| 20260508031421 | 64 | 44 | 1.0 | 3.0 | 0.00 | 0.02 | 0.02 | 87 | 1016.4 |
| 20260508030920 | 64 | 88 | 1.0 | 3.0 | 0.00 | 0.02 | 0.02 | 87 | 1016.3 |
| 20260508030416 | 64 | 0 | 1.0 | 4.0 | 0.00 | 0.02 | 0.02 | 87 | 1016.6 |
| 20260508025915 | 64 | 32 | 1.0 | 4.0 | 0.00 | 0.02 | 0.02 | 87 | 1016.6 |
| 20260508025645 | 64 | 76 | 1.0 | 3.0 | 0.00 | 0.02 | 0.02 | 87 | 1016.5 |
| 20260508024915 | 64 | 22 | 1.0 | 3.0 | 0.00 | 0.02 | 0.02 | 87 | 1016.5 |
| 20260508024416 | 64 | 18 | 1.0 | 3.0 | 0.00 | 0.02 | 0.02 | 86 | 1016.4 |
| 20260508023915 | 64 | 348 | 2.0 | 5.0 | 0.00 | 0.02 | 0.02 | 86 | 1016.3 |
| 20260508023413 | 64 | 29 | 3.0 | 5.0 | 0.00 | 0.02 | 0.02 | 86 | 1016.1 |
| 20260508022913 | 64 | 88 | 2.0 | 4.0 | 0.00 | 0.02 | 0.02 | 86 | 1016.0 |
| 20260508022411 | 64 | 84 | 2.0 | 6.0 | 0.00 | 0.02 | 0.02 | 86 | 1016.2 |
| 20260508021910 | 65 | 80 | 2.0 | 6.0 | 0.00 | 0.02 | 0.02 | 85 | 1016.3 |
| 20260508021408 | 65 | 81 | 1.0 | 4.0 | 0.00 | 0.02 | 0.02 | 85 | 1016.2 |
| 20260508020908 | 65 | 39 | 0.0 | 4.0 | 0.00 | 0.02 | 0.02 | 85 | 1016.2 |
| 20260508020403 | 65 | 38 | 0.0 | 4.0 | 0.00 | 0.02 | 0.02 | 85 | 1016.1 |
| 20260508015904 | 65 | 41 | 1.0 | 6.0 | 0.00 | 0.02 | 0.02 | 85 | 1016.1 |
| 20260508015404 | 65 | 45 | 2.0 | 6.0 | 0.00 | 0.02 | 0.02 | 84 | 1015.9 |
| 20260508015133 | 65 | 60 | 2.0 | 5.0 | 0.00 | 0.02 | 0.02 | 84 | 1015.9 |
| 20260508014404 | 65 | 83 | 2.0 | 5.0 | 0.00 | 0.02 | 0.02 | 84 | 1015.7 |
| 20260508013903 | 65 | 56 | 2.0 | 8.0 | 0.00 | 0.02 | 0.02 | 84 | 1015.6 |
| 20260508013355 | 65 | 74 | 2.0 | 8.0 | 0.00 | 0.02 | 0.02 | 83 | 1015.7 |
| 20260508012855 | 65 | 34 | 2.0 | 8.0 | 0.00 | 0.02 | 0.02 | 83 | 1015.6 |
| 20260508012356 | 66 | 54 | 2.0 | 8.0 | 0.00 | 0.02 | 0.02 | 83 | 1015.5 |
| 20260508011856 | 66 | 74 | 2.0 | 9.0 | 0.00 | 0.02 | 0.02 | 83 | 1015.6 |
| 20260508011357 | 66 | 66 | 3.0 | 9.0 | 0.00 | 0.02 | 0.02 | 82 | 1015.5 |
| 20260508011128 | 66 | 48 | 2.0 | 6.0 | 0.00 | 0.02 | 0.02 | 82 | 1015.6 |
| 20260508010352 | 66 | 94 | 1.0 | 4.0 | 0.00 | 0.02 | 0.02 | 82 | 1015.6 |
| 20260508010124 | 66 | 71 | 2.0 | 7.0 | 0.00 | 0.02 | 0.02 | 82 | 1015.5 |
| 20260508005353 | 67 | 90 | 2.0 | 9.0 | 0.00 | 0.02 | 0.02 | 82 | 1015.5 |
| 20260508004851 | 67 | 74 | 3.0 | 9.0 | 0.00 | 0.02 | 0.02 | 81 | 1015.4 |
| 20260508004348 | 67 | 22 | 3.0 | 10.0 | 0.00 | 0.02 | 0.02 | 80 | 1015.3 |
| 20260508003850 | 67 | 96 | 3.0 | 10.0 | 0.00 | 0.02 | 0.02 | 80 | 1015.5 |
| 20260508003616 | 67 | 19 | 3.0 | 9.0 | 0.00 | 0.02 | 0.02 | 80 | 1015.6 |
| 20260508002846 | 68 | 22 | 3.0 | 12.0 | 0.00 | 0.02 | 0.02 | 80 | 1015.6 |
| 20260508002344 | 68 | 355 | 3.0 | 12.0 | 0.00 | 0.02 | 0.02 | 80 | 1015.6 |
| 20260508001844 | 68 | 28 | 3.0 | 12.0 | 0.00 | 0.02 | 0.02 | 79 | 1015.6 |
| 20260508001346 | 69 | 10 | 3.0 | 12.0 | 0.00 | 0.02 | 0.02 | 79 | 1015.6 |
| 20260508000845 | 69 | 5 | 4.0 | 11.0 | 0.00 | 0.02 | 0.02 | 79 | 1015.6 |
| 20260508000343 | 69 | 59 | 4.0 | 11.0 | 0.00 | 0.02 | 0.02 | 79 | 1015.8 |
| 20260507235842 | 69 | 46 | 3.0 | 9.0 | 0.00 | 0.02 | 0.02 | 78 | 1015.7 |
| 20260507235613 | 70 | 56 | 3.0 | 8.0 | 0.00 | 0.02 | 0.02 | 78 | 1015.8 |
| 20260507234843 | 70 | 109 | 3.0 | 8.0 | 0.00 | 0.02 | 0.02 | 78 | 1015.6 |
| 20260507234338 | 70 | 71 | 3.0 | 9.0 | 0.00 | 0.02 | 0.02 | 78 | 1015.7 |
| 20260507233839 | 70 | 40 | 4.0 | 11.0 | 0.00 | 0.02 | 0.02 | 78 | 1015.7 |
| 20260507233338 | 70 | 40 | 5.0 | 11.0 | 0.00 | 0.02 | 0.02 | 77 | 1015.5 |
| 20260507232837 | 70 | 70 | 4.0 | 11.0 | 0.00 | 0.02 | 0.02 | 77 | 1015.4 |
| 20260507232339 | 71 | 60 | 4.0 | 14.0 | 0.00 | 0.02 | 0.02 | 76 | 1015.4 |
| 20260507231838 | 71 | 67 | 5.0 | 14.0 | 0.00 | 0.02 | 0.02 | 76 | 1015.4 |
| 20260507231333 | 71 | 5 | 5.0 | 11.0 | 0.00 | 0.02 | 0.02 | 76 | 1015.4 |
| 20260507230833 | 71 | 92 | 5.0 | 11.0 | 0.00 | 0.02 | 0.02 | 75 | 1015.3 |
| 20260507230344 | 71 | 87 | 4.0 | 13.0 | 0.00 | 0.02 | 0.02 | 76 | 1015.4 |
| 20260507225833 | 72 | 45 | 4.0 | 13.0 | 0.00 | 0.02 | 0.02 | 75 | 1015.3 |
| 20260507225333 | 72 | 34 | 4.0 | 13.0 | 0.00 | 0.02 | 0.02 | 75 | 1015.3 |
| 20260507224834 | 72 | 81 | 5.0 | 13.0 | 0.00 | 0.02 | 0.02 | 74 | 1015.4 |
| 20260507224332 | 72 | 19 | 5.0 | 12.0 | 0.00 | 0.02 | 0.02 | 74 | 1015.3 |
| 20260507223831 | 72 | 30 | 4.0 | 9.0 | 0.00 | 0.02 | 0.02 | 75 | 1015.2 |
| 20260507223332 | 72 | 39 | 5.0 | 15.0 | 0.00 | 0.02 | 0.02 | 74 | 1015.2 |
| 20260507223103 | 72 | 30 | 5.0 | 15.0 | 0.00 | 0.02 | 0.02 | 74 | 1015.2 |
| 20260507222337 | 73 | 70 | 5.0 | 14.0 | 0.00 | 0.02 | 0.02 | 73 | 1015.2 |
| 20260507222332 | 72 | 32 | 4.0 | 14.0 | 0.00 | 0.02 | 0.02 | 74 | 1015.2 |
| 20260507221558 | 73 | 71 | 5.0 | 13.0 | 0.00 | 0.02 | 0.02 | 74 | 1015.1 |
| 20260507220828 | 73 | 97 | 5.0 | 14.0 | 0.00 | 0.02 | 0.02 | 74 | 1015.1 |
| 20260507220328 | 73 | 5 | 6.0 | 14.0 | 0.00 | 0.02 | 0.02 | 74 | 1015.3 |
| 20260507215828 | 73 | 9 | 4.0 | 17.0 | 0.00 | 0.02 | 0.02 | 74 | 1015.2 |
| 20260507215327 | 73 | 11 | 4.0 | 17.0 | 0.00 | 0.02 | 0.02 | 73 | 1015.3 |
| 20260507215056 | 73 | 355 | 4.0 | 14.0 | 0.00 | 0.02 | 0.02 | 74 | 1015.3 |
| 20260507214319 | 73 | 51 | 5.0 | 14.0 | 0.00 | 0.02 | 0.02 | 75 | 1015.2 |
| 20260507213819 | 73 | 96 | 6.0 | 13.0 | 0.00 | 0.02 | 0.02 | 75 | 1015.3 |
| 20260507213321 | 73 | 336 | 5.0 | 13.0 | 0.00 | 0.02 | 0.02 | 75 | 1015.3 |
| 20260507212821 | 73 | 51 | 5.0 | 13.0 | 0.00 | 0.02 | 0.02 | 74 | 1015.2 |
| 20260507212552 | 74 | 42 | 5.0 | 13.0 | 0.00 | 0.02 | 0.02 | 72 | 1015.3 |
| 20260507211820 | 74 | 39 | 4.0 | 10.0 | 0.00 | 0.02 | 0.02 | 74 | 1015.4 |
| 20260507211316 | 74 | 305 | 5.0 | 14.0 | 0.00 | 0.02 | 0.02 | 75 | 1015.3 |
| 20260507210816 | 73 | 44 | 5.0 | 14.0 | 0.00 | 0.02 | 0.02 | 74 | 1015.3 |
| 20260507210316 | 74 | 345 | 4.0 | 11.0 | 0.00 | 0.02 | 0.02 | 74 | 1015.3 |
| 20260507205816 | 74 | 0 | 2.0 | 10.0 | 0.00 | 0.02 | 0.02 | 74 | 1015.4 |
| 20260507205314 | 73 | 11 | 3.0 | 10.0 | 0.00 | 0.02 | 0.02 | 74 | 1015.4 |
| 20260507204815 | 73 | 355 | 4.0 | 12.0 | 0.00 | 0.02 | 0.02 | 75 | 1015.3 |
| 20260507204307 | 73 | 48 | 5.0 | 12.0 | 0.00 | 0.02 | 0.02 | 74 | 1015.3 |
| 20260507203807 | 73 | 44 | 4.0 | 12.0 | 0.00 | 0.02 | 0.02 | 74 | 1015.3 |
| 20260507203304 | 73 | 37 | 3.0 | 12.0 | 0.00 | 0.02 | 0.02 | 74 | 1015.4 |
| 20260507202801 | 73 | 321 | 3.0 | 11.0 | 0.00 | 0.02 | 0.02 | 75 | 1015.4 |
| 20260507202306 | 73 | 84 | 4.0 | 12.0 | 0.00 | 0.02 | 0.02 | 76 | 1015.4 |
| 20260507201758 | 72 | 327 | 5.0 | 12.0 | 0.00 | 0.02 | 0.02 | 76 | 1015.4 |
| 20260507201259 | 72 | 30 | 5.0 | 13.0 | 0.00 | 0.02 | 0.02 | 75 | 1015.6 |
| 20260507200754 | 72 | 11 | 5.0 | 13.0 | 0.00 | 0.02 | 0.02 | 77 | 1015.5 |
| 20260507200256 | 72 | 324 | 5.0 | 10.0 | 0.00 | 0.02 | 0.02 | 77 | 1015.5 |
| 20260507200029 | 71 | 67 | 5.0 | 13.0 | 0.00 | 0.02 | 0.02 | 76 | 1015.5 |
| 20260507195255 | 71 | 24 | 5.0 | 13.0 | 0.00 | 0.02 | 0.02 | 76 | 1015.7 |
| 20260507194749 | 71 | 31 | 4.0 | 12.0 | 0.00 | 0.02 | 0.02 | 77 | 1015.6 |
| 20260507194247 | 71 | 21 | 4.0 | 12.0 | 0.00 | 0.02 | 0.02 | 76 | 1015.7 |
| 20260507193747 | 71 | 327 | 4.0 | 12.0 | 0.00 | 0.02 | 0.02 | 77 | 1015.9 |
| 20260507193243 | 71 | 107 | 4.0 | 12.0 | 0.00 | 0.02 | 0.02 | 78 | 1015.9 |
| 20260507192745 | 70 | 44 | 4.0 | 13.0 | 0.00 | 0.02 | 0.02 | 77 | 1015.9 |
| 20260507192238 | 70 | 22 | 4.0 | 13.0 | 0.00 | 0.02 | 0.02 | 78 | 1015.9 |
| 20260507191736 | 71 | 71 | 5.0 | 12.0 | 0.00 | 0.02 | 0.02 | 77 | 1016.0 |
| 20260507191234 | 71 | 22 | 4.0 | 12.0 | 0.00 | 0.02 | 0.02 | 77 | 1016.1 |
| 20260507190735 | 70 | 82 | 3.0 | 8.0 | 0.00 | 0.02 | 0.02 | 77 | 1016.2 |
| 20260507190234 | 70 | 5 | 4.0 | 9.0 | 0.00 | 0.02 | 0.02 | 78 | 1016.2 |
| 20260507185735 | 70 | 44 | 5.0 | 11.0 | 0.00 | 0.02 | 0.02 | 78 | 1016.2 |
| 20260507185226 | 70 | 15 | 5.0 | 12.0 | 0.00 | 0.02 | 0.02 | 78 | 1016.2 |
| 20260507184956 | 70 | 83 | 4.0 | 12.0 | 0.00 | 0.02 | 0.02 | 78 | 1016.1 |
| 20260507184223 | 70 | 20 | 4.0 | 11.0 | 0.00 | 0.02 | 0.02 | 78 | 1016.1 |
| 20260507183723 | 70 | 0 | 4.0 | 11.0 | 0.00 | 0.02 | 0.02 | 79 | 1016.3 |
| 20260507183221 | 70 | 342 | 4.0 | 11.0 | 0.00 | 0.02 | 0.02 | 80 | 1016.5 |
| 20260507182719 | 70 | 77 | 4.0 | 12.0 | 0.00 | 0.02 | 0.02 | 80 | 1016.6 |
| 20260507182218 | 70 | 40 | 3.0 | 12.0 | 0.00 | 0.02 | 0.02 | 77 | 1016.5 |
| 20260507181719 | 71 | 332 | 3.0 | 11.0 | 0.00 | 0.02 | 0.02 | 78 | 1016.4 |
| 20260507181217 | 71 | 355 | 5.0 | 13.0 | 0.00 | 0.02 | 0.02 | 78 | 1016.6 |
| 20260507180716 | 71 | 31 | 5.0 | 13.0 | 0.00 | 0.02 | 0.02 | 79 | 1016.7 |
| 20260507180448 | 71 | 61 | 4.0 | 13.0 | 0.00 | 0.02 | 0.02 | 77 | 1016.7 |
| 20260507175710 | 71 | 86 | 5.0 | 13.0 | 0.00 | 0.02 | 0.02 | 79 | 1016.5 |
| 20260507175440 | 71 | 265 | 5.0 | 14.0 | 0.00 | 0.02 | 0.02 | 78 | 1016.3 |
| 20260507175328 | 71 | 355 | 5.0 | 14.0 | 0.00 | 0.02 | 0.02 | 78 | 1016.2 |
| 20260507174211 | 71 | 48 | 5.0 | 14.0 | 0.00 | 0.02 | 0.02 | 80 | 1016.2 |
| 20260507173709 | 71 | 84 | 5.0 | 14.0 | 0.00 | 0.02 | 0.02 | 79 | 1016.3 |
| 20260507173212 | 70 | 58 | 5.0 | 11.0 | 0.00 | 0.02 | 0.02 | 78 | 1016.3 |
| 20260507172703 | 71 | 49 | 5.0 | 14.0 | 0.00 | 0.02 | 0.02 | 78 | 1016.3 |
| 20260507172203 | 71 | 36 | 5.0 | 14.0 | 0.00 | 0.02 | 0.02 | 79 | 1016.2 |
| 20260507171934 | 70 | 51 | 4.0 | 11.0 | 0.00 | 0.02 | 0.02 | 81 | 1016.2 |
| 20260507171204 | 69 | 32 | 4.0 | 11.0 | 0.00 | 0.02 | 0.02 | 81 | 1016.2 |
| 20260507170709 | 69 | 44 | 3.0 | 10.0 | 0.00 | 0.02 | 0.02 | 81 | 1016.4 |
| 20260507170704 | 69 | 65 | 4.0 | 11.0 | 0.00 | 0.02 | 0.02 | 82 | 1016.3 |
| 20260507165658 | 69 | 44 | 3.0 | 13.0 | 0.00 | 0.02 | 0.02 | 81 | 1016.5 |
| 20260507165159 | 69 | 349 | 2.0 | 11.0 | 0.00 | 0.02 | 0.02 | 80 | 1016.6 |
| 20260507164659 | 69 | 83 | 2.0 | 10.0 | 0.00 | 0.02 | 0.02 | 80 | 1016.5 |
| 20260507164157 | 69 | 302 | 3.0 | 12.0 | 0.00 | 0.02 | 0.02 | 80 | 1016.5 |
| 20260507163656 | 69 | 302 | 3.0 | 12.0 | 0.00 | 0.02 | 0.02 | 82 | 1016.6 |
| 20260507163155 | 69 | 294 | 3.0 | 13.0 | 0.00 | 0.02 | 0.02 | 81 | 1016.6 |
| 20260507162654 | 68 | 305 | 4.0 | 13.0 | 0.00 | 0.02 | 0.02 | 83 | 1016.6 |
| 20260507162152 | 68 | 22 | 4.0 | 11.0 | 0.00 | 0.02 | 0.02 | 83 | 1016.7 |
| 20260507161653 | 67 | 47 | 3.0 | 9.0 | 0.00 | 0.02 | 0.02 | 84 | 1016.5 |
| 20260507161152 | 66 | 88 | 3.0 | 9.0 | 0.00 | 0.02 | 0.02 | 84 | 1016.3 |
| 20260507160654 | 66 | 18 | 3.0 | 9.0 | 0.00 | 0.02 | 0.02 | 84 | 1016.3 |
| 20260507160423 | 65 | 66 | 4.0 | 9.0 | 0.00 | 0.02 | 0.02 | 85 | 1016.2 |
| 20260507155651 | 65 | 33 | 4.0 | 9.0 | 0.00 | 0.02 | 0.02 | 85 | 1016.3 |
| 20260507155151 | 64 | 34 | 3.0 | 8.0 | 0.00 | 0.02 | 0.02 | 87 | 1016.6 |
| 20260507154650 | 63 | 346 | 3.0 | 8.0 | 0.00 | 0.02 | 0.02 | 86 | 1016.6 |
| 20260507154150 | 63 | 46 | 3.0 | 8.0 | 0.00 | 0.02 | 0.02 | 86 | 1016.8 |
| 20260507153651 | 63 | 23 | 3.0 | 8.0 | 0.00 | 0.02 | 0.02 | 86 | 1016.8 |
| 20260507153146 | 63 | 68 | 3.0 | 8.0 | 0.00 | 0.02 | 0.02 | 86 | 1016.9 |
| 20260507152647 | 63 | 32 | 3.0 | 8.0 | 0.00 | 0.02 | 0.02 | 86 | 1016.9 |
| 20260507152151 | 63 | 87 | 4.0 | 12.0 | 0.00 | 0.02 | 0.02 | 87 | 1016.9 |
| 20260507152147 | 63 | 107 | 4.0 | 11.0 | 0.00 | 0.02 | 0.02 | 86 | 1016.9 |
| 20260507151149 | 63 | 355 | 4.0 | 12.0 | 0.00 | 0.02 | 0.02 | 86 | 1016.9 |
| 20260507150647 | 63 | 331 | 4.0 | 11.0 | 0.00 | 0.02 | 0.02 | 86 | 1016.9 |
| 20260507150143 | 63 | 51 | 4.0 | 11.0 | 0.00 | 0.02 | 0.02 | 86 | 1017.0 |
| 20260507145914 | 63 | 5 | 4.0 | 11.0 | 0.00 | 0.02 | 0.02 | 87 | 1016.9 |
| 20260507145142 | 63 | 71 | 3.0 | 10.0 | 0.00 | 0.02 | 0.02 | 87 | 1016.8 |
| 20260507144642 | 62 | 25 | 3.0 | 10.0 | 0.00 | 0.02 | 0.02 | 87 | 1016.9 |
| 20260507144415 | 62 | 14 | 3.0 | 9.0 | 0.00 | 0.02 | 0.02 | 87 | 1016.8 |
| 20260507143650 | 62 | 52 | 3.0 | 9.0 | 0.00 | 0.02 | 0.02 | 87 | 1016.8 |
| 20260507143641 | 62 | 65 | 3.0 | 9.0 | 0.00 | 0.02 | 0.02 | 87 | 1016.9 |
| 20260507142638 | 62 | 15 | 3.0 | 9.0 | 0.00 | 0.02 | 0.02 | 88 | 1016.7 |
| 20260507142140 | 62 | 53 | 4.0 | 12.0 | 0.00 | 0.02 | 0.02 | 88 | 1016.6 |
| 20260507141637 | 62 | 85 | 4.0 | 12.0 | 0.00 | 0.02 | 0.02 | 89 | 1016.5 |
| 20260507141136 | 61 | 14 | 3.0 | 9.0 | 0.00 | 0.02 | 0.02 | 90 | 1016.4 |
| 20260507140628 | 61 | 331 | 3.0 | 9.0 | 0.00 | 0.02 | 0.02 | 90 | 1016.4 |
| 20260507140128 | 60 | 30 | 3.0 | 9.0 | 0.00 | 0.02 | 0.02 | 90 | 1016.4 |
| 20260507135629 | 60 | 5 | 3.0 | 9.0 | 0.00 | 0.02 | 0.02 | 90 | 1016.3 |
| 20260507135129 | 60 | 12 | 2.0 | 9.0 | 0.00 | 0.02 | 0.02 | 91 | 1016.4 |
| 20260507134627 | 60 | 17 | 2.0 | 8.0 | 0.00 | 0.02 | 0.02 | 92 | 1016.4 |
| 20260507134125 | 60 | 74 | 3.0 | 10.0 | 0.00 | 0.02 | 0.02 | 91 | 1016.3 |
| 20260507133623 | 60 | 351 | 4.0 | 10.0 | 0.00 | 0.02 | 0.02 | 91 | 1016.4 |
| 20260507133353 | 60 | 10 | 3.0 | 8.0 | 0.00 | 0.02 | 0.02 | 91 | 1016.6 |
| 20260507132619 | 60 | 355 | 2.0 | 7.0 | 0.00 | 0.02 | 0.02 | 91 | 1016.5 |
| 20260507132119 | 60 | 13 | 2.0 | 11.0 | 0.00 | 0.02 | 0.02 | 92 | 1016.5 |
| 20260507131620 | 60 | 35 | 3.0 | 11.0 | 0.00 | 0.02 | 0.02 | 92 | 1016.6 |
| 20260507131120 | 60 | 347 | 4.0 | 11.0 | 0.00 | 0.02 | 0.02 | 92 | 1016.7 |
| 20260507130615 | 60 | 330 | 2.0 | 11.0 | 0.00 | 0.02 | 0.02 | 92 | 1016.6 |
| 20260507130117 | 60 | 309 | 1.0 | 6.0 | 0.00 | 0.02 | 0.02 | 93 | 1016.6 |
| 20260507125849 | 60 | 355 | 3.0 | 9.0 | 0.00 | 0.02 | 0.02 | 93 | 1016.5 |
| 20260507125348 | 60 | 25 | 3.0 | 9.0 | 0.00 | 0.02 | 0.02 | 93 | 1016.8 |
| 20260507124613 | 60 | 18 | 3.0 | 9.0 | 0.00 | 0.02 | 0.02 | 93 | 1016.1 |
| 20260507124343 | 60 | 53 | 3.0 | 8.0 | 0.00 | 0.02 | 0.02 | 93 | 1016.1 |
| 20260507123608 | 60 | 11 | 2.0 | 11.0 | 0.00 | 0.02 | 0.02 | 93 | 1015.9 |
| 20260507123105 | 60 | 23 | 3.0 | 11.0 | 0.00 | 0.02 | 0.02 | 92 | 1016.0 |
| 20260507122604 | 60 | 355 | 4.0 | 11.0 | 0.00 | 0.02 | 0.02 | 93 | 1015.9 |
| 20260507122103 | 60 | 10 | 3.0 | 11.0 | 0.00 | 0.02 | 0.02 | 93 | 1015.9 |
| 20260507121601 | 60 | 75 | 4.0 | 10.0 | 0.00 | 0.02 | 0.02 | 93 | 1016.0 |
| 20260507121327 | 60 | 30 | 5.0 | 13.0 | 0.00 | 0.02 | 0.02 | 93 | 1016.0 |
| 20260507120555 | 60 | 0 | 5.0 | 15.0 | 0.00 | 0.02 | 0.02 | 93 | 1016.0 |
| 20260507120057 | 60 | 45 | 4.0 | 15.0 | 0.00 | 0.02 | 0.02 | 93 | 1015.9 |
| 20260507115558 | 60 | 9 | 4.0 | 14.0 | 0.00 | 0.02 | 0.02 | 93 | 1015.7 |
| 20260507115055 | 60 | 24 | 5.0 | 14.0 | 0.00 | 0.02 | 0.02 | 93 | 1015.7 |
| 20260507114556 | 60 | 83 | 3.0 | 14.0 | 0.00 | 0.02 | 0.02 | 93 | 1015.7 |
| 20260507114049 | 60 | 11 | 2.0 | 8.0 | 0.00 | 0.02 | 0.02 | 93 | 1015.8 |
| 20260507113547 | 60 | 36 | 3.0 | 9.0 | 0.00 | 0.02 | 0.02 | 93 | 1015.7 |
| 20260507113318 | 60 | 324 | 4.0 | 12.0 | 0.00 | 0.02 | 0.02 | 93 | 1015.5 |
| 20260507112543 | 60 | 21 | 4.0 | 12.0 | 0.00 | 0.02 | 0.02 | 93 | 1015.3 |
| 20260507112042 | 60 | 346 | 3.0 | 11.0 | 0.00 | 0.02 | 0.02 | 93 | 1015.3 |
| 20260507111540 | 60 | 11 | 2.0 | 12.0 | 0.00 | 0.02 | 0.02 | 93 | 1015.3 |
| 20260507111039 | 60 | 43 | 2.0 | 12.0 | 0.00 | 0.02 | 0.02 | 93 | 1015.2 |
| 20260507110812 | 60 | 355 | 2.0 | 9.0 | 0.00 | 0.02 | 0.02 | 93 | 1015.2 |
| 20260507110038 | 60 | 19 | 3.0 | 9.0 | 0.00 | 0.02 | 0.02 | 93 | 1015.1 |
| 20260507105538 | 60 | 73 | 3.0 | 12.0 | 0.00 | 0.02 | 0.02 | 93 | 1014.9 |
| 20260507105039 | 60 | 339 | 3.0 | 12.0 | 0.00 | 0.02 | 0.02 | 93 | 1014.8 |
| 20260507104530 | 60 | 355 | 3.0 | 12.0 | 0.00 | 0.02 | 0.02 | 93 | 1014.8 |
| 20260507104031 | 61 | 26 | 3.0 | 12.0 | 0.00 | 0.02 | 0.02 | 93 | 1014.8 |
| 20260507103530 | 61 | 329 | 3.0 | 10.0 | 0.00 | 0.02 | 0.02 | 93 | 1014.9 |
| 20260507103030 | 61 | 341 | 2.0 | 10.0 | 0.00 | 0.02 | 0.02 | 93 | 1014.7 |
| 20260507102530 | 61 | 36 | 3.0 | 13.0 | 0.00 | 0.02 | 0.02 | 93 | 1014.6 |
| 20260507102302 | 61 | 0 | 3.0 | 13.0 | 0.00 | 0.02 | 0.02 | 93 | 1014.6 |
| 20260507101529 | 61 | 9 | 3.0 | 9.0 | 0.00 | 0.02 | 0.02 | 93 | 1014.8 |
| 20260507101029 | 61 | 333 | 3.0 | 12.0 | 0.00 | 0.02 | 0.02 | 93 | 1014.5 |
| 20260507100529 | 61 | 16 | 2.0 | 12.0 | 0.00 | 0.02 | 0.02 | 93 | 1014.5 |
| 20260507100027 | 61 | 316 | 4.0 | 13.0 | 0.00 | 0.02 | 0.02 | 93 | 1014.5 |
| 20260507095527 | 62 | 19 | 5.0 | 13.0 | 0.00 | 0.02 | 0.02 | 93 | 1014.4 |
| 20260507095028 | 62 | 5 | 4.0 | 12.0 | 0.00 | 0.02 | 0.02 | 93 | 1014.1 |
| 20260507094531 | 62 | 95 | 3.0 | 12.0 | 0.00 | 0.02 | 0.02 | 93 | 1014.0 |
| 20260507094026 | 62 | 42 | 2.0 | 7.0 | 0.00 | 0.02 | 0.02 | 93 | 1014.0 |
| 20260507093525 | 62 | 22 | 3.0 | 12.0 | 0.00 | 0.02 | 0.02 | 93 | 1014.0 |
| 20260507093023 | 62 | 49 | 3.0 | 12.0 | 0.00 | 0.02 | 0.02 | 93 | 1013.8 |
| 20260507092524 | 62 | 5 | 3.0 | 10.0 | 0.00 | 0.02 | 0.02 | 93 | 1013.5 |
| 20260507092027 | 63 | 11 | 2.0 | 10.0 | 0.01 | 0.02 | 0.02 | 93 | 1013.8 |
| 20260507092022 | 63 | 355 | 3.0 | 10.0 | 0.01 | 0.02 | 0.02 | 93 | 1013.7 |
| 20260507091020 | 63 | 305 | 2.0 | 10.0 | 0.01 | 0.02 | 0.02 | 93 | 1013.7 |
| 20260507090753 | 63 | 17 | 2.0 | 10.0 | 0.01 | 0.02 | 0.02 | 93 | 1013.6 |
| 20260507090020 | 63 | 5 | 2.0 | 6.0 | 0.01 | 0.02 | 0.02 | 93 | 1013.6 |
| 20260507085519 | 64 | 9 | 2.0 | 9.0 | 0.01 | 0.02 | 0.02 | 93 | 1013.1 |
| 20260507085016 | 64 | 47 | 2.0 | 9.0 | 0.01 | 0.02 | 0.02 | 93 | 1013.4 |
| 20260507084514 | 64 | 0 | 2.0 | 14.0 | 0.01 | 0.02 | 0.02 | 93 | 1013.4 |
| 20260507084015 | 64 | 85 | 2.0 | 14.0 | 0.01 | 0.02 | 0.02 | 93 | 1013.4 |
| 20260507083512 | 64 | 53 | 4.0 | 14.0 | 0.02 | 0.02 | 0.02 | 92 | 1013.3 |
| 20260507083012 | 64 | 338 | 4.0 | 14.0 | 0.02 | 0.02 | 0.02 | 92 | 1013.3 |
| 20260507082513 | 65 | 5 | 2.0 | 11.0 | 0.02 | 0.02 | 0.02 | 92 | 1013.4 |
| 20260507082009 | 65 | 57 | 2.0 | 11.0 | 0.01 | 0.01 | 0.01 | 92 | 1013.6 |
| 20260507081511 | 65 | 318 | 2.0 | 9.0 | 0.01 | 0.01 | 0.01 | 92 | 1013.6 |
| 20260507081009 | 65 | 44 | 2.0 | 9.0 | 0.01 | 0.01 | 0.01 | 92 | 1013.6 |
| 20260507080511 | 65 | 323 | 1.0 | 8.0 | 0.01 | 0.01 | 0.01 | 92 | 1013.6 |
| 20260507080011 | 65 | 292 | 1.0 | 6.0 | 0.01 | 0.01 | 0.01 | 92 | 1013.6 |
| 20260507075505 | 65 | 15 | 2.0 | 8.0 | 0.01 | 0.01 | 0.01 | 92 | 1013.4 |
| 20260507075005 | 66 | 20 | 3.0 | 8.0 | 0.01 | 0.01 | 0.01 | 92 | 1013.4 |
| 20260507074506 | 66 | 0 | 3.0 | 9.0 | 0.01 | 0.01 | 0.01 | 91 | 1013.2 |
| 20260507074005 | 66 | 11 | 3.0 | 9.0 | 0.01 | 0.01 | 0.01 | 91 | 1013.3 |
| 20260507073507 | 67 | 342 | 3.0 | 11.0 | 0.00 | 0.00 | 0.00 | 91 | 1013.3 |
| 20260507073007 | 67 | 5 | 3.0 | 11.0 | 0.00 | 0.00 | 0.00 | 91 | 1013.3 |
| 20260507072501 | 67 | 325 | 3.0 | 10.0 | 0.00 | 0.00 | 0.00 | 90 | 1013.4 |
| 20260507072000 | 67 | 299 | 4.0 | 10.0 | 0.00 | 0.00 | 0.00 | 90 | 1013.3 |
| 20260507071503 | 68 | 298 | 5.0 | 12.0 | 0.00 | 0.00 | 0.00 | 89 | 1013.3 |
| 20260507071000 | 68 | 11 | 4.0 | 12.0 | 0.00 | 0.00 | 0.00 | 88 | 1013.4 |
| 20260507070503 | 69 | 332 | 3.0 | 12.0 | 0.00 | 0.00 | 0.00 | 87 | 1013.3 |
| 20260507070003 | 70 | 18 | 3.0 | 12.0 | 0.00 | 0.00 | 0.00 | 86 | 1013.3 |
| 20260507065729 | 72 | 5 | 4.0 | 12.0 | 0.00 | 0.00 | 0.00 | 84 | 1013.2 |
| 20260507064959 | 74 | 348 | 2.0 | 12.0 | 0.00 | 0.00 | 0.00 | 83 | 1013.2 |
| 20260507064456 | 78 | 236 | 0.0 | 2.0 | 0.00 | 0.00 | 0.00 | 90 | 1013.1 |
| 20260507063953 | 78 | 236 | 0.0 | 2.0 | 0.00 | 0.00 | 0.00 | 90 | 1012.9 |
| 20260507063454 | 78 | 216 | 1.0 | 2.0 | 0.00 | 0.00 | 0.00 | 90 | 1012.9 |
| 20260507062955 | 78 | 216 | 1.0 | 2.0 | 0.00 | 0.00 | 0.00 | 90 | 1013.0 |
| 20260507062452 | 78 | 216 | 1.0 | 2.0 | 0.00 | 0.00 | 0.00 | 90 | 1013.0 |
| 20260507061951 | 78 | 216 | 1.0 | 2.0 | 0.00 | 0.00 | 0.00 | 90 | 1013.0 |
| 20260507061451 | 78 | 264 | 0.0 | 2.0 | 0.00 | 0.00 | 0.00 | 90 | 1013.1 |
| 20260507060947 | 78 | 251 | 0.0 | 0.0 | 0.00 | 0.00 | 0.00 | 90 | 1012.9 |
| 20260507060447 | 78 | 251 | 0.0 | 2.0 | 0.00 | 0.00 | 0.00 | 90 | 1013.0 |
| 20260507060219 | 78 | 256 | 0.0 | 2.0 | 0.00 | 0.00 | 0.00 | 90 | 1013.1 |
| 20260507055714 | 78 | 256 | 1.0 | 2.0 | 0.00 | 0.00 | 0.00 | 90 | 1013.0 |
| 20260507054944 | 78 | 256 | 1.0 | 2.0 | 0.00 | 0.00 | 0.00 | 90 | 1012.9 |
| 20260507054709 | 78 | 226 | 1.0 | 2.0 | 0.00 | 0.00 | 0.00 | 90 | 1012.9 |
| 20260507054207 | 78 | 220 | 1.0 | 2.0 | 0.00 | 0.00 | 0.00 | 90 | 1013.0 |
| 20260507053436 | 78 | 220 | 1.0 | 2.0 | 0.00 | 0.00 | 0.00 | 89 | 1012.9 |
| 20260507052932 | 78 | 221 | 1.0 | 2.0 | 0.00 | 0.00 | 0.00 | 89 | 1012.9 |
| 20260507052433 | 78 | 258 | 0.0 | 3.0 | 0.00 | 0.00 | 0.00 | 89 | 1012.9 |
| 20260507051930 | 78 | 271 | 1.0 | 3.0 | 0.00 | 0.00 | 0.00 | 89 | 1012.9 |
| 20260507051702 | 78 | 275 | 1.0 | 3.0 | 0.00 | 0.00 | 0.00 | 89 | 1012.8 |
| 20260507050930 | 78 | 275 | 1.0 | 3.0 | 0.00 | 0.00 | 0.00 | 89 | 1012.8 |
| 20260507050428 | 78 | 275 | 1.0 | 3.0 | 0.00 | 0.00 | 0.00 | 89 | 1012.8 |
| 20260507045926 | 78 | 246 | 1.0 | 2.0 | 0.00 | 0.00 | 0.00 | 89 | 1012.7 |
| 20260507045425 | 78 | 226 | 1.0 | 3.0 | 0.00 | 0.00 | 0.00 | 89 | 1012.7 |
| 20260507044920 | 78 | 284 | 1.0 | 3.0 | 0.00 | 0.00 | 0.00 | 89 | 1012.7 |
| 20260507044418 | 78 | 269 | 1.0 | 3.0 | 0.00 | 0.00 | 0.00 | 89 | 1012.8 |
| 20260507043915 | 78 | 216 | 1.0 | 2.0 | 0.00 | 0.00 | 0.00 | 89 | 1012.7 |